カタログに戻る

CARTOSAT 2C

運用中科学SSO
NORAD 41599·PAYLOAD·🇮🇳 India

打ち上げ Jun 22, 2016 から Satish Dhawan Space Centre

Loading…

次のパス (今後24時間)

TLE

最新Source: Space-Track

元期: Sep 14, 2026, 15:15 UTC

1 41599U 16040A   26257.63576876  .00003954  00000-0  19060-3 0  9999
2 41599  97.4392 316.3369 0009015 173.8461 186.2886 15.19266271567298

AllMySatでCARTOSAT 2Cをリアルタイム追跡

Download on the App Store